Weather History for Fargo, ND

Change the Weather History Date:

Tuesday, July 30, 2013

  Actual Average Record
Temperature  
Mean Temperature 69 °F 71 °F  
Max Temperature 80 °F 83 °F 102 °F (2006)
Min Temperature 58 °F 60 °F 39 °F (1971)
Degree Days  
Heating Degree Days 0 0  
Month to date heating degree days 17 12  
Since 1 June heating degree days 79 85  
Since 1 July heating degree days 17 12  
Cooling Degree Days 4 7  
Month to date cooling degree days 231 200  
Year to date cooling degree days 406 338  
Since 1 June cooling degree days 377 307  
Growing Degree Days 20 (Base 50)    
Moisture  
Dew Point 58 °F    
Average Humidity 68    
Maximum Humidity 90    
Minimum Humidity 45    
Precipitation  
Precipitation 0.00 in 0.07 in 0.81 in (1890)
Month to date precipitation 0.90 2.72  
Year to date precipitation 21.53 13.43  
Snow  
Snow 0.00 in 0.00 in 0.00 in ()
Month to date snowfall 0.0 0.0  
Since 1 June snowfall 0.0 0.0  
Since 1 July snowfall 0.0 0.0  
Snow Depth 0.00 in    
Sea Level Pressure  
Sea Level Pressure 30.04 in    
Wind  
Wind Speed 6 mph (SW)    
Max Wind Speed 13 mph    
Max Gust Speed 17 mph    
Visibility 10 miles    
Events      
T = Trace of Precipitation, MM = Missing Value Source: NWS Daily Summary

Daily Weather History Graph

Daily Weather History Graph

Search for Another Location

Airport:

Trip Planner

Search our weather history database for the weather conditions in past years. The results will help you decide how hot, cold, wet, or windy it might be!

Date:

Astronomy

Jul. 30, 2013 Rise Set
Actual Time 6:04 AM CDT 9:01 PM CDT
Civil Twilight 5:29 AM CDT 9:37 PM CDT
Nautical Twilight 4:43 AM CDT 10:22 PM CDT
Astronomical Twilight 3:48 AM CDT 11:17 PM CDT
Moon 12:26 AM CDT (7/30) 3:21 PM CDT (7/30)
Length of Visible Light 16h 08m
Length of Day
14h 56m
Last Quarter, 41% of the Moon is Illuminated
Jul 30
Last Quarter
Aug 6
New
Aug 14
First Quarter
Aug 20
Full
Aug 28
Last Quarter

Hourly Weather History & Observations

Time (CDT) Temp. Dew Point Humidity Pressure Visibility Wind Dir Wind Speed Gust Speed Precip Events Conditions
12:53 AM 62.1 °F 57.0 °F 84% 30.03 in 10.0 mi SSE 9.2 mph - 0.01 in   Overcast
1:53 AM 62.1 °F 55.9 °F 80% 30.03 in 10.0 mi SSE 11.5 mph - N/A   Overcast
2:53 AM 62.1 °F 57.0 °F 84% 30.02 in 10.0 mi South 11.5 mph - N/A   Overcast
3:53 AM 61.0 °F 57.0 °F 87% 30.02 in 10.0 mi South 9.2 mph - N/A   Mostly Cloudy
4:53 AM 61.0 °F 57.0 °F 87% 30.03 in 10.0 mi South 8.1 mph - N/A   Overcast
5:53 AM 60.1 °F 55.9 °F 86% 30.04 in 10.0 mi South 8.1 mph - N/A   Clear
6:53 AM 61.0 °F 57.0 °F 87% 30.05 in 10.0 mi SSW 6.9 mph - N/A   Clear
7:39 AM 62.6 °F 59.0 °F 88% 30.05 in 10.0 mi SSW 6.9 mph - N/A   Mostly Cloudy
7:53 AM 63.0 °F 57.9 °F 84% 30.05 in 10.0 mi SSW 5.8 mph - N/A   Overcast
8:31 AM 64.4 °F 59.0 °F 83% 30.06 in 10.0 mi SSW 4.6 mph - N/A   Scattered Clouds
8:53 AM 66.9 °F 59.0 °F 76% 30.05 in 10.0 mi WSW 4.6 mph - N/A   Clear
9:53 AM 68.0 °F 60.1 °F 76% 30.05 in 10.0 mi Calm Calm - N/A   Partly Cloudy
10:09 AM 69.8 °F 60.8 °F 73% 30.06 in 10.0 mi WNW 3.5 mph - N/A   Mostly Cloudy
10:53 AM 70.0 °F 61.0 °F 73% 30.06 in 10.0 mi West 6.9 mph - N/A   Mostly Cloudy
11:53 AM 73.0 °F 60.1 °F 64% 30.06 in 10.0 mi Variable 3.5 mph - N/A   Partly Cloudy
12:53 PM 75.9 °F 60.1 °F 58% 30.06 in 10.0 mi Calm Calm - N/A   Partly Cloudy
1:53 PM 78.1 °F 60.1 °F 54% 30.06 in 10.0 mi WNW 6.9 mph - N/A   Partly Cloudy
2:53 PM 78.1 °F 57.0 °F 48% 30.05 in 10.0 mi WNW 8.1 mph - N/A   Partly Cloudy
3:53 PM 78.1 °F 57.9 °F 50% 30.05 in 10.0 mi West 6.9 mph - N/A   Clear
4:53 PM 79.0 °F 55.9 °F 45% 30.04 in 10.0 mi WNW 8.1 mph - N/A   Partly Cloudy
5:53 PM 77.0 °F 57.9 °F 52% 30.03 in 10.0 mi West 4.6 mph - N/A   Partly Cloudy
6:53 PM 75.9 °F 59.0 °F 56% 30.03 in 10.0 mi NNW 12.7 mph - N/A   Overcast
7:53 PM 73.9 °F 60.1 °F 62% 30.03 in 10.0 mi North 5.8 mph - N/A   Scattered Clouds
8:53 PM 69.1 °F 60.1 °F 73% 30.03 in 10.0 mi North 3.5 mph - N/A   Clear
9:53 PM 66.0 °F 59.0 °F 78% 30.06 in 10.0 mi Calm Calm - N/A   Clear
10:53 PM 63.0 °F 57.9 °F 84% 30.06 in 10.0 mi Calm Calm - N/A   Clear
11:53 PM 60.1 °F 57.9 °F 93% 30.05 in 10.0 mi Calm Calm - N/A   Clear